GW3894 Weather Reports


Display with metric or nautical units.
time (UTC)temp
F
wind
direction
speed
MPH
gust
MPH
rain 1hr
in
rain 24hr
in
rain mn
in
humidity
%
barometer
mb
20260906143124 76 321 2.0 6.0 0.00 0.00 0.00 82 1015.8
20260906142844 76 209 2.0 10.0 0.00 0.00 0.00 82 1015.8
20260906142111 76 298 2.0 10.0 0.00 0.00 0.00 82 1015.8
20260906141606 76 342 2.0 8.0 0.00 0.00 0.00 82 1015.8
20260906141059 76 41 2.0 8.0 0.00 0.00 0.00 83 1015.8
20260906140553 76 316 1.0 5.0 0.00 0.00 0.00 83 1015.7
20260906140048 76 311 2.0 4.0 0.00 0.00 0.00 83 1015.7
20260906135542 76 261 2.0 4.0 0.00 0.00 0.00 83 1015.6
20260906135036 76 338 1.0 4.0 0.00 0.00 0.00 83 1015.7
20260906134530 75 0 1.0 4.0 0.00 0.00 0.00 83 1015.7
20260906134024 75 0 1.0 4.0 0.00 0.00 0.00 83 1015.6
20260906133518 75 0 1.0 4.0 0.00 0.00 0.00 83 1015.6
20260906133012 75 0 1.0 8.0 0.00 0.00 0.00 83 1015.6
20260906132506 75 0 1.0 8.0 0.00 0.00 0.00 84 1015.6
20260906132001 75 0 1.0 6.0 0.00 0.00 0.00 84 1015.6
20260906131453 75 344 1.0 6.0 0.00 0.00 0.00 84 1015.6
20260906130948 74 148 1.0 6.0 0.00 0.00 0.00 84 1015.7
20260906130442 74 178 2.0 6.0 0.00 0.00 0.00 84 1015.7
20260906125936 74 279 1.0 4.0 0.00 0.00 0.00 85 1015.6
20260906125656 74 315 1.0 5.0 0.00 0.00 0.00 85 1015.6
20260906124924 74 252 1.0 5.0 0.00 0.00 0.00 85 1015.6
20260906124418 74 256 1.0 4.0 0.00 0.00 0.00 85 1015.6
20260906123406 73 330 1.0 3.0 0.00 0.00 0.00 85 1015.5
20260906122900 73 329 1.0 4.0 0.00 0.00 0.00 85 1015.4
20260906122355 73 277 1.0 4.0 0.00 0.00 0.00 85 1015.4
20260906122105 73 317 1.0 3.0 0.00 0.00 0.00 85 1015.3
20260906121341 73 325 1.0 6.0 0.00 0.00 0.00 85 1015.3
20260906120835 73 355 1.0 6.0 0.00 0.00 0.00 85 1015.2
20260906120330 73 323 1.0 4.0 0.00 0.00 0.00 85 1015.0
20260906115824 73 328 1.0 4.0 0.00 0.00 0.00 85 1015.0
20260906115536 73 316 0.0 2.0 0.00 0.00 0.00 85 1014.9
20260906114811 73 317 0.0 2.0 0.00 0.00 0.00 85 1014.9
20260906114306 73 302 1.0 3.0 0.00 0.00 0.00 85 1014.9
20260906113759 73 302 1.0 3.0 0.00 0.00 0.00 85 1014.8
20260906113254 74 336 1.0 3.0 0.00 0.00 0.00 85 1014.8
20260906112748 74 328 1.0 3.0 0.00 0.00 0.00 85 1014.7
20260906112242 74 310 0.0 2.0 0.00 0.00 0.00 85 1014.8
20260906111736 74 284 0.0 2.0 0.00 0.00 0.00 85 1014.8
20260906111229 74 286 1.0 2.0 0.00 0.00 0.00 85 1014.7
20260906110723 74 304 1.0 4.0 0.00 0.00 0.00 85 1014.7
20260906110435 74 276 1.0 4.0 0.00 0.00 0.00 84 1014.7
20260906105712 74 335 1.0 3.0 0.00 0.00 0.00 84 1014.6
20260906105206 75 0 0.0 2.0 0.00 0.00 0.00 84 1014.5
20260906104700 75 0 0.0 4.0 0.00 0.00 0.00 85 1014.4
20260906104154 75 327 1.0 4.0 0.00 0.00 0.00 84 1014.5
20260906103647 75 325 1.0 4.0 0.00 0.00 0.00 84 1014.5
20260906103410 75 253 1.0 4.0 0.00 0.00 0.00 84 1014.5
20260906102636 75 336 1.0 4.0 0.00 0.00 0.00 84 1014.4
20260906102136 75 347 1.0 4.0 0.00 0.00 0.00 84 1014.3
20260906101636 76 238 1.0 4.0 0.00 0.00 0.00 84 1014.3
20260906101404 76 315 1.0 3.0 0.00 0.00 0.00 84 1014.3
20260906100636 76 306 1.0 5.0 0.00 0.00 0.00 84 1014.3
20260906100135 76 315 1.0 5.0 0.00 0.00 0.00 84 1014.2
20260906095633 76 312 0.0 3.0 0.00 0.00 0.00 84 1014.2
20260906095132 76 265 0.0 2.0 0.00 0.00 0.00 84 1014.1
20260906094629 76 325 0.0 2.0 0.00 0.00 0.00 84 1014.0
20260906094127 77 321 0.0 2.0 0.00 0.00 0.00 84 1014.1
20260906093626 77 321 1.0 3.0 0.00 0.00 0.00 84 1014.1
20260906093126 77 321 1.0 3.0 0.00 0.00 0.00 83 1014.1
20260906092626 77 222 1.0 3.0 0.00 0.00 0.00 83 1014.0
20260906092122 77 331 2.0 5.0 0.00 0.00 0.00 83 1014.0
20260906091623 77 304 2.0 8.0 0.00 0.00 0.00 83 1014.0
20260906091124 77 303 2.0 8.0 0.00 0.00 0.00 83 1014.0
20260906090621 78 340 1.0 5.0 0.00 0.00 0.00 83 1013.8
20260906090120 78 315 1.0 5.0 0.00 0.00 0.00 83 1013.7
20260906085621 78 324 2.0 5.0 0.00 0.00 0.00 83 1013.7
20260906085115 78 330 2.0 8.0 0.00 0.00 0.00 83 1013.7
20260906084615 78 284 2.0 8.0 0.00 0.00 0.00 83 1013.7
20260906084114 78 309 2.0 7.0 0.00 0.00 0.00 82 1013.7
20260906083615 79 328 2.0 5.0 0.00 0.00 0.00 82 1013.6
20260906083114 79 331 2.0 5.0 0.00 0.00 0.00 82 1013.6
20260906083103 79 323 1.0 4.0 0.00 0.00 0.00 82 1013.5
20260906082115 79 335 1.0 5.0 0.00 0.00 0.00 82 1013.5
20260906081616 79 320 2.0 6.0 0.00 0.00 0.00 82 1013.4
20260906081116 79 331 2.0 6.0 0.00 0.00 0.00 82 1013.4
20260906080610 80 338 2.0 6.0 0.00 0.00 0.00 82 1013.4
20260906080110 80 329 1.0 5.0 0.00 0.00 0.00 82 1013.3
20260906075611 80 329 2.0 6.0 0.00 0.00 0.00 82 1013.4
20260906075112 80 82 2.0 6.0 0.00 0.00 0.00 82 1013.5
20260906075059 80 321 1.0 6.0 0.00 0.00 0.00 82 1013.6
20260906074111 81 345 1.0 6.0 0.00 0.00 0.00 81 1013.6
20260906073812 81 333 1.0 4.0 0.00 0.00 0.00 81 1013.6
20260906073659 81 321 1.0 4.0 0.00 0.00 0.00 81 1013.6
20260906072834 81 279 1.0 4.0 0.00 0.00 0.00 81 1013.6
20260906072105 82 331 1.0 4.0 0.00 0.00 0.00 81 1013.6
20260906071559 82 332 1.0 4.0 0.00 0.00 0.00 80 1013.6
20260906071052 82 336 2.0 5.0 0.00 0.00 0.00 80 1013.6
20260906070807 82 310 2.0 5.0 0.00 0.00 0.00 80 1013.5
20260906070041 82 317 1.0 4.0 0.00 0.00 0.00 79 1013.4
20260906065535 83 336 2.0 5.0 0.00 0.00 0.00 79 1013.4
20260906065251 83 325 2.0 5.0 0.00 0.00 0.00 79 1013.4
20260906064523 83 309 2.0 7.0 0.00 0.00 0.00 79 1013.4
20260906064017 83 74 2.0 7.0 0.00 0.00 0.00 78 1013.5
20260906063511 83 315 2.0 5.0 0.00 0.00 0.00 78 1013.5
20260906063005 83 327 1.0 5.0 0.00 0.00 0.00 78 1013.5
20260906062459 83 313 2.0 5.0 0.00 0.00 0.00 78 1013.4
20260906061956 83 289 2.0 7.0 0.00 0.00 0.00 77 1013.4
20260906061456 83 323 1.0 7.0 0.00 0.00 0.00 77 1013.5
20260906060956 84 330 1.0 3.0 0.00 0.00 0.00 77 1013.5
20260906060452 84 317 1.0 3.0 0.00 0.00 0.00 77 1013.5
20260906055952 84 80 1.0 4.0 0.00 0.00 0.00 77 1013.5
20260906055453 84 297 1.0 4.0 0.00 0.00 0.00 76 1013.5
20260906054954 84 338 1.0 4.0 0.00 0.00 0.00 76 1013.4
20260906054453 84 336 0.0 2.0 0.00 0.00 0.00 76 1013.4
20260906053952 84 235 1.0 4.0 0.00 0.00 0.00 76 1013.4
20260906053448 84 235 1.0 5.0 0.00 0.00 0.00 76 1013.4
20260906052948 84 309 1.0 5.0 0.00 0.00 0.00 75 1013.4
20260906052449 84 308 1.0 3.0 0.00 0.00 0.00 75 1013.4
20260906051947 85 280 1.0 2.0 0.00 0.00 0.00 75 1013.4
20260906051446 85 306 1.0 2.0 0.00 0.00 0.00 75 1013.4
20260906051208 85 306 1.0 2.0 0.00 0.00 0.00 74 1013.4
20260906050444 85 311 0.0 2.0 0.00 0.00 0.00 74 1013.5
20260906045943 85 317 1.0 2.0 0.00 0.00 0.00 74 1013.4
20260906045444 85 294 0.0 2.0 0.00 0.00 0.00 74 1013.3
20260906044937 85 316 0.0 2.0 0.00 0.00 0.00 73 1013.3
20260906044430 85 316 0.0 2.0 0.00 0.00 0.00 73 1013.2
20260906043924 85 312 0.0 4.0 0.00 0.00 0.00 73 1013.2
20260906043418 85 312 0.0 4.0 0.00 0.00 0.00 72 1013.2
20260906042911 85 336 0.0 2.0 0.00 0.00 0.00 72 1013.1
20260906042406 86 308 0.0 2.0 0.00 0.00 0.00 72 1013.0
20260906041900 86 308 0.0 3.0 0.00 0.00 0.00 71 1013.1
20260906041354 86 308 1.0 3.0 0.00 0.00 0.00 71 1013.0
20260906041112 86 309 1.0 3.0 0.00 0.00 0.00 71 1012.8
20260906040559 86 319 1.0 3.0 0.00 0.00 0.00 71 1012.8
20260906040100 86 326 1.0 3.0 0.00 0.00 0.00 71 1012.7
20260906035330 86 311 1.0 3.0 0.00 0.00 0.00 71 1012.8
20260906035029 86 298 0.0 2.0 0.00 0.00 0.00 71 1012.8
20260906034913 86 316 1.0 3.0 0.00 0.00 0.00 71 1012.8
20260906034035 86 319 1.0 3.0 0.00 0.00 0.00 71 1012.8
20260906033306 85 312 1.0 3.0 0.00 0.00 0.00 71 1012.8
20260906032800 85 331 1.0 2.0 0.00 0.00 0.00 72 1012.8
20260906032254 85 333 0.0 2.0 0.00 0.00 0.00 72 1012.7
20260906031747 85 226 0.0 1.0 0.00 0.00 0.00 72 1012.7
20260906031248 85 226 0.0 0.0 0.00 0.00 0.00 71 1012.6
20260906030748 85 226 0.0 0.0 0.00 0.00 0.00 71 1012.5
20260906030247 86 226 0.0 0.0 0.00 0.00 0.00 70 1012.5
20260906025745 86 226 0.0 0.0 0.00 0.00 0.00 70 1012.4
20260906025510 86 226 0.0 1.0 0.00 0.00 0.00 70 1012.4
20260906024746 86 226 0.0 1.0 0.00 0.00 0.00 69 1012.4
20260906024243 86 226 0.0 0.0 0.00 0.00 0.00 68 1012.3
20260906023742 86 226 0.0 1.0 0.00 0.00 0.00 68 1012.2
20260906023459 87 226 0.0 2.0 0.00 0.00 0.00 68 1012.2
20260906022947 87 226 0.0 1.0 0.00 0.00 0.00 67 1012.1
20260906022827 87 226 0.0 2.0 0.00 0.00 0.00 67 1012.1
20260906021739 87 226 0.0 1.0 0.00 0.00 0.00 66 1011.9
20260906021235 87 226 0.0 1.0 0.00 0.00 0.00 66 1011.9
20260906020955 87 226 0.0 1.0 0.00 0.00 0.00 65 1011.8
20260906020237 87 226 0.0 0.0 0.00 0.00 0.00 65 1011.7
20260906015732 88 226 0.0 0.0 0.00 0.00 0.00 64 1011.6
20260906015449 88 226 0.0 1.0 0.00 0.00 0.00 64 1011.5
20260906014731 88 226 0.0 1.0 0.00 0.00 0.00 63 1011.5
20260906014231 88 226 0.0 1.0 0.00 0.00 0.00 63 1011.5
20260906013726 88 226 0.0 1.0 0.00 0.00 0.00 63 1011.4
20260906013220 89 226 0.0 1.0 0.00 0.00 0.00 63 1011.4
20260906012713 89 226 0.0 1.0 0.00 0.00 0.00 62 1011.3
20260906012207 89 226 0.0 3.0 0.00 0.00 0.00 62 1011.2
20260906011701 89 226 0.0 3.0 0.00 0.00 0.00 62 1011.2
20260906011156 90 269 0.0 1.0 0.00 0.00 0.00 61 1011.1
20260906010649 90 269 0.0 1.0 0.00 0.00 0.00 61 1011.1
20260906010144 90 269 0.0 1.0 0.00 0.00 0.00 60 1011.0
20260906005903 90 269 0.0 1.0 0.00 0.00 0.00 59 1011.0
20260906005132 91 269 0.0 2.0 0.00 0.00 0.00 59 1010.9
20260906004626 91 269 0.0 2.0 0.00 0.00 0.00 59 1010.9
20260906004346 91 255 1.0 3.0 0.00 0.00 0.00 57 1010.9
20260906003843 91 217 1.0 3.0 0.00 0.00 0.00 57 1010.9
20260906003120 92 306 1.0 4.0 0.00 0.00 0.00 55 1011.0
20260906002621 92 238 0.0 4.0 0.00 0.00 0.00 54 1011.0
20260906002118 93 267 0.0 3.0 0.00 0.00 0.00 53 1011.0
20260906001615 93 272 0.0 3.0 0.00 0.00 0.00 53 1011.0
20260906001113 93 198 1.0 7.0 0.00 0.00 0.00 52 1011.0
20260906000612 94 325 1.0 7.0 0.00 0.00 0.00 51 1011.1
20260906000111 94 286 0.0 4.0 0.00 0.00 0.00 50 1011.1
20260905235612 94 265 0.0 2.0 0.00 0.00 0.00 50 1011.1
20260905235108 94 263 1.0 6.0 0.00 0.00 0.00 50 1011.0
20260905234608 95 248 1.0 6.0 0.00 0.00 0.00 49 1011.0
20260905234333 95 198 0.0 2.0 0.00 0.00 0.00 50 1011.0
20260905233607 95 198 0.0 3.0 0.00 0.00 0.00 48 1010.9
20260905233104 96 202 1.0 3.0 0.00 0.00 0.00 48 1011.1
20260905232604 96 215 0.0 3.0 0.00 0.00 0.00 47 1011.1
20260905232101 96 211 0.0 2.0 0.00 0.00 0.00 47 1011.1
20260905231601 96 213 0.0 2.0 0.00 0.00 0.00 47 1011.1
20260905231058 96 213 0.0 2.0 0.00 0.00 0.00 47 1011.1
20260905230558 96 213 0.0 1.0 0.00 0.00 0.00 46 1011.1
20260905230057 96 213 0.0 2.0 0.00 0.00 0.00 46 1011.1
20260905225555 96 213 1.0 3.0 0.00 0.00 0.00 46 1011.1
20260905225055 97 216 1.0 3.0 0.00 0.00 0.00 45 1011.1
20260905224554 97 323 1.0 4.0 0.00 0.00 0.00 44 1011.0
20260905224055 97 248 1.0 4.0 0.00 0.00 0.00 44 1011.0
20260905223818 97 346 1.0 5.0 0.00 0.00 0.00 44 1010.8
20260905223055 97 11 2.0 6.0 0.00 0.00 0.00 43 1010.8
20260905222556 98 306 2.0 6.0 0.00 0.00 0.00 42 1010.8
20260905222056 98 246 1.0 6.0 0.00 0.00 0.00 41 1010.9
20260905221552 98 314 1.0 6.0 0.00 0.00 0.00 42 1010.9
20260905221052 99 260 1.0 6.0 0.00 0.00 0.00 41 1010.9
20260905220551 99 232 2.0 5.0 0.00 0.00 0.00 41 1010.9
20260905220052 99 63 2.0 5.0 0.00 0.00 0.00 41 1011.0
20260905215550 99 191 2.0 7.0 0.00 0.00 0.00 41 1011.0
20260905215314 99 318 2.0 7.0 0.00 0.00 0.00 41 1010.9
20260905214552 99 221 2.0 7.0 0.00 0.00 0.00 42 1010.9
20260905214050 99 242 1.0 7.0 0.00 0.00 0.00 40 1010.9
20260905213552 99 315 1.0 5.0 0.00 0.00 0.00 40 1011.0
20260905213045 99 311 2.0 5.0 0.00 0.00 0.00 40 1010.9
20260905212539 99 192 1.0 6.0 0.00 0.00 0.00 41 1010.8
20260905212032 99 301 2.0 6.0 0.00 0.00 0.00 41 1010.8
20260905211525 99 327 2.0 7.0 0.00 0.00 0.00 41 1010.8
20260905211019 99 277 2.0 7.0 0.00 0.00 0.00 41 1010.9
20260905210512 99 293 3.0 6.0 0.00 0.00 0.00 41 1011.1
20260905210006 99 298 3.0 7.0 0.00 0.00 0.00 42 1011.2
20260905205505 99 323 3.0 9.0 0.00 0.00 0.00 44 1011.3
20260905205004 99 325 2.0 9.0 0.00 0.00 0.00 43 1011.4
20260905204732 99 236 2.0 7.0 0.00 0.00 0.00 42 1011.3
20260905204002 99 318 2.0 7.0 0.00 0.00 0.00 41 1011.3
20260905203725 100 15 2.0 7.0 0.00 0.00 0.00 41 1011.3
20260905203001 100 278 2.0 8.0 0.00 0.00 0.00 42 1011.3
20260905202458 100 260 3.0 9.0 0.00 0.00 0.00 42 1011.3
20260905201958 100 323 4.0 10.0 0.00 0.00 0.00 42 1011.4
20260905201949 101 248 4.0 10.0 0.00 0.00 0.00 41 1011.4
20260905200958 101 239 3.0 10.0 0.00 0.00 0.00 40 1011.4
20260905200458 101 205 3.0 11.0 0.00 0.00 0.00 42 1011.5
20260905195959 102 216 3.0 11.0 0.00 0.00 0.00 40 1011.5
20260905195500 103 207 1.0 5.0 0.00 0.00 0.00 37 1011.5
20260905194958 103 173 1.0 5.0 0.00 0.00 0.00 36 1011.4
20260905194456 102 184 2.0 9.0 0.00 0.00 0.00 36 1011.4
20260905193958 102 215 3.0 9.0 0.00 0.00 0.00 37 1011.5
20260905193457 101 217 2.0 7.0 0.00 0.00 0.00 38 1011.6
20260905192951 102 193 2.0 8.0 0.00 0.00 0.00 37 1011.8
20260905192445 102 184 2.0 8.0 0.00 0.00 0.00 36 1011.9
20260905192157 102 229 1.0 6.0 0.00 0.00 0.00 37 1012.0
20260905191433 102 188 2.0 4.0 0.00 0.00 0.00 36 1011.9
20260905191147 102 313 2.0 10.0 0.00 0.00 0.00 37 1012.0
20260905190421 103 213 3.0 10.0 0.00 0.00 0.00 36 1012.0
20260905185915 103 204 3.0 7.0 0.00 0.00 0.00 35 1012.1
20260905185409 103 235 2.0 6.0 0.00 0.00 0.00 37 1012.1
20260905184903 103 212 3.0 6.0 0.00 0.00 0.00 35 1012.2
20260905184357 102 234 2.0 6.0 0.00 0.00 0.00 38 1012.2
20260905183851 102 183 2.0 6.0 0.00 0.00 0.00 38 1012.3
20260905183345 102 168 2.0 5.0 0.00 0.00 0.00 38 1012.4
20260905183108 102 275 2.0 8.0 0.00 0.00 0.00 40 1012.4
20260905182333 102 68 2.0 8.0 0.00 0.00 0.00 37 1012.3
20260905181827 103 184 2.0 6.0 0.00 0.00 0.00 38 1012.4
20260905181321 103 244 2.0 8.0 0.00 0.00 0.00 38 1012.5
20260905180815 103 187 2.0 8.0 0.00 0.00 0.00 39 1012.6
20260905180309 103 293 1.0 5.0 0.00 0.00 0.00 40 1012.6
20260905175803 103 263 2.0 6.0 0.00 0.00 0.00 39 1012.7
20260905175513 103 184 3.0 7.0 0.00 0.00 0.00 39 1012.8
20260905175013 103 184 2.0 7.0 0.00 0.00 0.00 41 1012.8
20260905174245 102 178 2.0 6.0 0.00 0.00 0.00 41 1012.8
20260905173739 102 283 2.0 6.0 0.00 0.00 0.00 40 1012.8
20260905173233 102 190 2.0 6.0 0.00 0.00 0.00 42 1013.0
20260905172727 101 166 2.0 6.0 0.00 0.00 0.00 41 1013.0
20260905172221 101 198 2.0 6.0 0.00 0.00 0.00 43 1013.0
20260905171715 101 208 1.0 5.0 0.00 0.00 0.00 45 1013.1
20260905171209 100 197 2.0 6.0 0.00 0.00 0.00 45 1013.2
20260905170703 100 184 2.0 6.0 0.00 0.00 0.00 44 1013.3
20260905170157 100 209 2.0 5.0 0.00 0.00 0.00 45 1013.4
20260905165651 100 296 2.0 7.0 0.00 0.00 0.00 45 1013.4
20260905165145 100 213 2.0 7.0 0.00 0.00 0.00 43 1013.5
20260905164639 100 192 1.0 5.0 0.00 0.00 0.00 46 1013.5
20260905164353 101 223 2.0 6.0 0.00 0.00 0.00 43 1013.5
20260905163627 101 268 2.0 6.0 0.00 0.00 0.00 44 1013.5
20260905163121 100 201 2.0 6.0 0.00 0.00 0.00 44 1013.6
20260905162618 100 169 2.0 7.0 0.00 0.00 0.00 45 1013.6
20260905162336 100 279 2.0 7.0 0.00 0.00 0.00 44 1013.7
20260905161617 99 231 1.0 4.0 0.00 0.00 0.00 44 1013.7
20260905161118 99 206 1.0 4.0 0.00 0.00 0.00 46 1013.7
20260905160839 98 257 1.0 4.0 0.00 0.00 0.00 47 1013.7
20260905160338 98 212 1.0 4.0 0.00 0.00 0.00 49 1013.8
20260905155613 97 184 1.0 4.0 0.00 0.00 0.00 50 1013.7
20260905155112 97 161 1.0 4.0 0.00 0.00 0.00 50 1013.8
20260905155105 96 208 1.0 5.0 0.00 0.00 0.00 52 1013.7
20260905154110 96 189 1.0 5.0 0.00 0.00 0.00 52 1013.7
20260905153608 95 161 1.0 4.0 0.00 0.00 0.00 52 1013.8
20260905153108 95 183 1.0 4.0 0.00 0.00 0.00 52 1013.8
20260905152609 95 177 1.0 3.0 0.00 0.00 0.00 53 1013.8
20260905152107 95 157 1.0 4.0 0.00 0.00 0.00 55 1013.8
20260905151606 94 125 1.0 4.0 0.00 0.00 0.00 56 1013.8
20260905151105 93 53 2.0 4.0 0.00 0.00 0.00 58 1013.8
20260905150607 92 215 1.0 4.0 0.00 0.00 0.00 59 1013.8
20260905145602 90 199 1.0 3.0 0.00 0.00 0.00 62 1013.8
20260905145101 89 192 1.0 3.0 0.00 0.00 0.00 63 1013.7
20260905144603 88 197 1.0 4.0 0.00 0.00 0.00 64 1013.7
20260905144103 88 187 1.0 4.0 0.00 0.00 0.00 64 1013.7